| time (UTC) | temp F | wind direction | speed MPH | gust MPH | rain 1hr in | rain 24hr in | rain mn in | humidity % | barometer mb |
| 20260505224513 | 53 | 360 | 5.0 | 15.0 | 0.00 | 0.00 | 0.00 | 75 | 1007.6 |
| 20260505223010 | 53 | 36 | 4.0 | 8.0 | 0.00 | 0.00 | 0.00 | 75 | 1007.6 |
| 20260505221508 | 53 | 51 | 3.0 | 14.0 | 0.00 | 0.00 | 0.00 | 75 | 1007.5 |
| 20260505220005 | 53 | 45 | 5.0 | 15.0 | 0.00 | 0.00 | 0.00 | 75 | 1007.5 |
| 20260505214505 | 54 | 350 | 3.0 | 10.0 | 0.00 | 0.00 | 0.00 | 74 | 1006.9 |
| 20260505213001 | 54 | 30 | 6.0 | 14.0 | 0.00 | 0.00 | 0.00 | 73 | 1006.7 |
| 20260505211559 | 54 | 29 | 4.0 | 10.0 | 0.00 | 0.00 | 0.00 | 74 | 1006.6 |
| 20260505210059 | 55 | 46 | 5.0 | 13.0 | 0.00 | 0.00 | 0.00 | 74 | 1005.9 |
| 20260505204558 | 54 | 337 | 3.0 | 12.0 | 0.00 | 0.00 | 0.00 | 75 | 1005.9 |
| 20260505203104 | 54 | 325 | 4.0 | 11.0 | 0.00 | 0.00 | 0.00 | 76 | 1006.6 |
| 20260505201554 | 55 | 321 | 3.0 | 8.0 | 0.00 | 0.00 | 0.00 | 76 | 1006.1 |
| 20260505200053 | 54 | 38 | 6.0 | 14.0 | 0.00 | 0.00 | 0.00 | 78 | 1005.9 |
| 20260505194551 | 54 | 20 | 4.0 | 10.0 | 0.00 | 0.00 | 0.00 | 79 | 1006.0 |
| 20260505193049 | 54 | 339 | 4.0 | 12.0 | 0.00 | 0.00 | 0.00 | 79 | 1006.1 |
| 20260505191606 | 55 | 23 | 4.0 | 12.0 | 0.00 | 0.00 | 0.00 | 80 | 1005.8 |
| 20260505190047 | 55 | 3 | 7.0 | 14.0 | 0.00 | 0.00 | 0.00 | 80 | 1005.5 |
| 20260505184541 | 56 | 29 | 5.0 | 13.0 | 0.00 | 0.00 | 0.00 | 80 | 1005.7 |
| 20260505183041 | 56 | 34 | 5.0 | 12.0 | 0.00 | 0.00 | 0.00 | 79 | 1005.5 |
| 20260505181536 | 56 | 32 | 6.0 | 15.0 | 0.00 | 0.00 | 0.00 | 78 | 1005.4 |
| 20260505174551 | 57 | 11 | 3.0 | 9.0 | 0.00 | 0.00 | 0.00 | 80 | 1004.8 |
| 20260505173037 | 57 | 315 | 5.0 | 13.0 | 0.00 | 0.00 | 0.00 | 80 | 1004.5 |
| 20260505171535 | 57 | 359 | 4.0 | 17.0 | 0.00 | 0.00 | 0.00 | 81 | 1004.4 |
| 20260505170032 | 57 | 4 | 5.0 | 13.0 | 0.00 | 0.00 | 0.00 | 82 | 1004.0 |
| 20260505164530 | 57 | 1 | 6.0 | 13.0 | 0.00 | 0.00 | 0.00 | 82 | 1003.7 |
| 20260505163029 | 58 | 343 | 6.0 | 11.0 | 0.00 | 0.00 | 0.00 | 82 | 1003.4 |
| 20260505161524 | 58 | 360 | 4.0 | 16.0 | 0.00 | 0.00 | 0.00 | 83 | 1003.0 |
| 20260505153013 | 61 | 54 | 5.0 | 16.0 | 0.00 | 0.00 | 0.00 | 82 | 1001.6 |
| 20260505151510 | 63 | 344 | 6.0 | 17.0 | 0.00 | 0.00 | 0.00 | 80 | 1001.1 |
| 20260505124530 | 68 | 338 | 0.0 | 0.0 | 0.00 | 0.00 | 0.00 | 82 | 999.0 |
| 20260505123033 | 68 | 338 | 0.0 | 0.0 | 0.00 | 0.00 | 0.00 | 81 | 998.8 |
| 20260505121526 | 69 | 340 | 0.0 | 4.0 | 0.00 | 0.00 | 0.00 | 79 | 998.4 |
| 20260505120025 | 70 | 278 | 2.0 | 11.0 | 0.00 | 0.00 | 0.00 | 78 | 997.7 |
| 20260505114521 | 70 | 221 | 3.0 | 8.0 | 0.00 | 0.00 | 0.00 | 77 | 997.4 |
| 20260505113022 | 70 | 219 | 3.0 | 12.0 | 0.00 | 0.00 | 0.00 | 77 | 997.0 |
| 20260505111521 | 70 | 218 | 3.0 | 12.0 | 0.00 | 0.00 | 0.00 | 77 | 996.6 |
| 20260505101527 | 71 | 198 | 5.0 | 14.0 | 0.00 | 0.00 | 0.00 | 75 | 996.3 |
| 20260505100025 | 72 | 165 | 5.0 | 14.0 | 0.00 | 0.00 | 0.00 | 75 | 996.4 |
| 20260505094507 | 72 | 195 | 7.0 | 13.0 | 0.00 | 0.00 | 0.00 | 75 | 996.4 |
| 20260505093005 | 72 | 186 | 6.0 | 13.0 | 0.00 | 0.00 | 0.00 | 75 | 996.3 |
| 20260505091503 | 72 | 219 | 5.0 | 18.0 | 0.00 | 0.00 | 0.00 | 75 | 996.3 |
| 20260505090001 | 72 | 223 | 7.0 | 14.0 | 0.00 | 0.00 | 0.00 | 75 | 996.5 |
| 20260505084607 | 72 | 241 | 6.0 | 16.0 | 0.00 | 0.00 | 0.00 | 75 | 996.6 |
| 20260505083105 | 72 | 148 | 6.0 | 16.0 | 0.00 | 0.00 | 0.00 | 75 | 996.6 |
| 20260505081619 | 72 | 220 | 6.0 | 15.0 | 0.00 | 0.00 | 0.00 | 75 | 996.9 |
| 20260505074552 | 72 | 233 | 6.0 | 13.0 | 0.00 | 0.00 | 0.00 | 75 | 997.2 |
| 20260505073050 | 72 | 210 | 3.0 | 9.0 | 0.00 | 0.00 | 0.00 | 75 | 997.5 |
| 20260505071553 | 72 | 211 | 7.0 | 15.0 | 0.00 | 0.00 | 0.00 | 75 | 997.6 |
| 20260505070045 | 72 | 243 | 9.0 | 18.0 | 0.00 | 0.00 | 0.00 | 75 | 997.7 |
| 20260505064541 | 72 | 143 | 7.0 | 16.0 | 0.00 | 0.00 | 0.00 | 74 | 997.9 |
| 20260505063046 | 72 | 238 | 7.0 | 15.0 | 0.00 | 0.00 | 0.00 | 74 | 998.0 |
| 20260505061540 | 72 | 231 | 4.0 | 15.0 | 0.00 | 0.00 | 0.00 | 74 | 998.1 |
| 20260505060034 | 73 | 227 | 7.0 | 13.0 | 0.00 | 0.00 | 0.00 | 73 | 998.2 |
| 20260505054534 | 73 | 197 | 8.0 | 16.0 | 0.00 | 0.00 | 0.00 | 73 | 998.4 |
| 20260505053037 | 73 | 230 | 5.0 | 15.0 | 0.00 | 0.00 | 0.00 | 72 | 998.4 |
| 20260505051537 | 73 | 216 | 7.0 | 16.0 | 0.00 | 0.00 | 0.00 | 71 | 998.6 |
| 20260505041523 | 74 | 169 | 7.0 | 16.0 | 0.00 | 0.00 | 0.00 | 70 | 998.9 |
| 20260505040020 | 74 | 158 | 6.0 | 17.0 | 0.00 | 0.00 | 0.00 | 70 | 999.1 |
| 20260505034518 | 75 | 207 | 6.0 | 14.0 | 0.00 | 0.00 | 0.00 | 69 | 999.1 |
| 20260505033018 | 75 | 187 | 7.0 | 16.0 | 0.00 | 0.00 | 0.00 | 68 | 999.2 |
| 20260505031517 | 75 | 153 | 6.0 | 15.0 | 0.00 | 0.00 | 0.00 | 68 | 998.9 |
| 20260505030017 | 75 | 238 | 6.0 | 16.0 | 0.00 | 0.00 | 0.00 | 67 | 998.7 |
| 20260505024515 | 76 | 240 | 7.0 | 14.0 | 0.00 | 0.00 | 0.00 | 67 | 998.6 |
| 20260505023020 | 76 | 257 | 6.0 | 11.0 | 0.00 | 0.00 | 0.00 | 66 | 998.8 |
| 20260505021514 | 76 | 196 | 7.0 | 14.0 | 0.00 | 0.00 | 0.00 | 65 | 998.7 |
| 20260505020013 | 77 | 250 | 4.0 | 11.0 | 0.00 | 0.00 | 0.00 | 64 | 998.6 |
| 20260505014513 | 77 | 75 | 5.0 | 16.0 | 0.00 | 0.00 | 0.00 | 62 | 998.6 |
| 20260505013012 | 78 | 212 | 5.0 | 12.0 | 0.00 | 0.00 | 0.00 | 61 | 998.5 |
| 20260505011513 | 78 | 231 | 6.0 | 15.0 | 0.00 | 0.00 | 0.00 | 60 | 998.4 |
| 20260505010017 | 79 | 214 | 6.0 | 16.0 | 0.00 | 0.00 | 0.00 | 59 | 998.7 |
| 20260505004508 | 79 | 167 | 6.0 | 21.0 | 0.00 | 0.00 | 0.00 | 58 | 998.9 |
| 20260505003010 | 80 | 217 | 9.0 | 22.0 | 0.00 | 0.00 | 0.00 | 57 | 998.7 |
| 20260505001507 | 80 | 248 | 7.0 | 19.0 | 0.00 | 0.00 | 0.00 | 57 | 998.8 |
| 20260505000005 | 81 | 212 | 7.0 | 15.0 | 0.00 | 0.00 | 0.00 | 56 | 999.0 |
| 20260504234504 | 81 | 175 | 7.0 | 13.0 | 0.00 | 0.00 | 0.00 | 55 | 999.2 |
| 20260504233003 | 82 | 243 | 7.0 | 16.0 | 0.00 | 0.00 | 0.00 | 53 | 999.3 |
| 20260504231502 | 82 | 221 | 6.0 | 14.0 | 0.00 | 0.00 | 0.00 | 52 | 999.2 |